Location: Oberkirch
(48.5323°N, 8.0787°E)
Time: 06:57:59
(UTC+00:00)

ADEOS Rocket - Pass Details

Date: 08 November 2025
Orbit: 859 x 1304 km, 98.7° (Epoch: 16 December)

Event Time Altitude Azimuth Distance (km) Brightness Sun altitude
Rises 02:31:07 0° 17° (NNE) 3,762 6.5 -38.5°
Reaches altitude 10° 02:33:34 10° 21° (NNE) 2,865 5.8 -38.1°
Enters shadow 02:38:53 55° 60° (ENE) 1,328 3.8 -37.3°
